sat.trackr.live / text

‹ back to catalog

SXM-11

NORAD 69728 · 2026-148A

PAYLOAD ACTIVE UNKNOWN

§ Identity

Operator
Country
US
Launch date
2026-06-29
Launch site
AFETR
Launch vehicle
Mass (kg)
RCS (m²)

External: N2YO · Heavens-Above · Gunter

§ Orbital elements

Epoch: 2026-09-20T03:52:57.215712Z

Period
1,436.11 min
Inclination
0.0171°
Eccentricity
0.0000154
Mean motion
1.00270640 rev/d
Perigee alt
35,786.3 km
Apogee alt
35,787.6 km
Semi-major
42,165.1 km
B*
0.0000e+0
RAAN
129.0457°
Arg perigee
38.5940°
Mean anomaly
134.3611°
Rev number
99

§ Raw data

SXM-111 69728U 26148A   26263.16177333 -.00000026  00000+0  00000+0 0  99902 69728   0.0171 129.0457 0000154  38.5940 134.3611  1.00270640   997

JSON: /api/v1/satellites/69728 · /tle

For live sub-satellite position, see the globe view (requires WebGL).

§ Visibility from observer

Set your observer location to see the next 7 days of passes ≥ 10°. The values pass through the URL so the page stays shareable.

No JS? Fill the form by hand. The geolocation button needs JavaScript.